[[{"header":{"parameterUnit":"m.s-1","parameterCategory":1,"la1":30.2991,"la2":30.254,"lo1":-89.0895,"lo2":-89.0444,"dy":0.0017,"dx":0.0017,"nx":28,"ny":28,"refTime":"2024-06-14T09:00:00:Z","depth":0,"parameterNumber":2,"parameterNumberName":"U-component_of_WINDS"},"data":[0,0,0,0,0,0,0,0,0,0,0,0,0,0,0,0,0,0,0,0,0,0,0,0,0,0,0,0,0,0,0,0,0,0,0,0,0,0,0,0,0,0,0,0,0,0,0,0,0,0,0,0,0,0,0,0,0,0,0.5044,0.5043,0,0.4962,0.4961,0.496,0.4855,0.4853,0.4851,0.485,0.4767,0.4766,0.4765,0,0,0,0,0,0,0,0,0,0,0,0,0,0.5111,0.5111,0.5044,0.5043,0.5042,0.4962,0.4961,0.496,0.4855,0.4853,0.4851,0.4849,0.4767,0.4766,0.4765,0,0,0,0,0,0,0,0,0,0,0,0,0,0.5061,0.5111,0.5044,0.498,0.4974,0.4962,0.4961,0.4959,0.4855,0.4853,0.485,0.4848,0.4767,0.4766,0.4765,0.481,0,0,0.4762,0.4762,0,0,0,0,0,0,0,0,0.5064,0.5059,0.4991,0.4985,0.4977,0.4916,0.4954,0.4909,0.4856,0.49,0.485,0.4847,0.4818,0.4813,0.4803,0.4807,0.4803,0.4762,0.4762,0.4761,0.4761,0,0,0,0,0,0,0,0.5068,0.5062,0.5012,0.499,0.4982,0.4956,0.4946,0.4945,0.4875,0.4896,0.4888,0.488,0.4814,0.4804,0.4801,0.4802,0.4762,0.4761,0.4761,0.4761,0.4836,0.4838,0,0,0,0,0,0,0.5081,0.5065,0.5014,0.5009,0.5015,0.4957,0.4945,0.4938,0.4874,0.4862,0.4882,0.4875,0.4807,0.4802,0.4797,0.4844,0.4761,0.476,0.476,0.4833,0.4837,0.4839,0,0,0,0,0,0,0.5083,0.5077,0.5017,0.5035,0.5025,0.4958,0.4951,0.4938,0.4928,0.4864,0.4851,0.4885,0.4805,0.4799,0.4807,0.484,0.476,0.4759,0.483,0.4834,0.4838,0.4941,0,0,0,0,0,0,0.5085,0.5078,0.5095,0.5036,0.5025,0.5029,0.4953,0.4938,0.4926,0.4917,0.4863,0.4852,0.4803,0.4809,0.4807,0.4837,0.4758,0.4827,0.4832,0.4837,0.4934,0.4948,0.4959,0,0,0,0,0,0.5088,0.5128,0.5096,0.5091,0.5044,0.5031,0.5025,0.4967,0.493,0.4945,0.4904,0.4853,0.4837,0.4811,0.4807,0.4838,0.4825,0.4831,0.4836,0.4928,0.4945,0.4959,0,0,0,0,0,0,0.5193,0.5119,0.5083,0.5105,0.5075,0.5014,0.5032,0.4987,0.4967,0.4959,0.4888,0.4877,0.4895,0.4867,0.4839,0.4878,0.4823,0.4829,0.4895,0.491,0.4922,0.4928,0.4758,0,0,0,0,0,0.5219,0.5214,0.515,0.5176,0.5162,0.51,0.5093,0.505,0.5017,0.5004,0.4963,0.4933,0.492,0.4914,0.4899,0.493,0.4916,0.4949,0.4962,0.4972,0.4977,0.499,0.5004,0.4858,0.4858,0.4858,0,0,0.5272,0.5231,0.5233,0.5196,0.5168,0.5165,0.509,0.5091,0.5087,0.5004,0.5009,0.4978,0.4939,0.4959,0.4966,0.4937,0.5015,0.498,0.4989,0.4988,0.4998,0.5011,0.5024,0.4862,0.4862,0.4861,0,0,0.5367,0.5336,0.5353,0.5326,0.5284,0.5242,0.5247,0.5191,0.5167,0.5172,0.5108,0.5104,0.5085,0.5059,0.5044,0.5128,0.5081,0.5125,0.5191,0.5204,0.5216,0.5225,0.5254,0.5266,0.5131,0.5131,0.5131,0,0.5438,0.5431,0.5368,0.5372,0.5357,0.528,0.5297,0.5274,0.523,0.5222,0.519,0.5163,0.5132,0.5144,0.5164,0.5155,0.5157,0.5131,0.5219,0.5228,0.5236,0.5263,0.5275,0.5137,0.5136,0.5136,0.5135,0,0.552,0.5516,0.5535,0.5493,0.5481,0.5491,0.543,0.5425,0.5384,0.5346,0.535,0.531,0.5285,0.5285,0.5245,0.5291,0.5274,0.5232,0.5176,0.5257,0.5281,0.5291,0.5145,0.5143,0.5141,0.514,0,0,0.5679,0.5601,0.5609,0.5589,0.5537,0.5532,0.5539,0.5514,0.5511,0.5483,0.5486,0.5471,0.5431,0.5414,0.5371,0.5383,0.5451,0.5338,0.5336,0.536,0.5497,0.5529,0.5542,0.5419,0.5421,0.5422,0.55,0,0.5763,0.577,0.5713,0.5735,0.573,0.5657,0.5662,0.5631,0.5595,0.5586,0.5546,0.5536,0.5485,0.5474,0.5482,0.5441,0.5477,0.5434,0.5421,0.5421,0.5432,0.5554,0.5588,0.5663,0.5509,0.5511,0.5512,0,0.5862,0.5839,0.586,0.5806,0.5801,0.5808,0.5779,0.5771,0.5734,0.5707,0.5687,0.5637,0.564,0.5587,0.5589,0.5561,0.5552,0.5531,0.5533,0.5529,0.5471,0.5553,0.5686,0.5697,0.5526,0.5525,0.5524,0,0.5974,0.5948,0.5957,0.5942,0.5879,0.5885,0.5859,0.5819,0.5807,0.5783,0.5775,0.5752,0.5739,0.5722,0.5667,0.5634,0.5675,0.5618,0.5652,0.5653,0.5663,0.5663,0.5796,0.566,0.566,0.5659,0.5659,0,0.6074,0.6089,0.6006,0.6012,0.6027,0.5962,0.5979,0.5946,0.5911,0.5908,0.5844,0.5843,0.5771,0.5762,0.5719,0.5727,0.5722,0.57,0.5688,0.5705,0.5708,0.5698,0.5691,0.5662,0.5662,0.5661,0.5661,0,0.6201,0.6146,0.6151,0.6091,0.6076,0.609,0.6038,0.6041,0.6001,0.5998,0.5994,0.5932,0.5918,0.5861,0.5834,0.5805,0.5826,0.5804,0.5839,0.5831,0.5868,0.5865,0.5998,0.6012,0.5868,0.587,0.5871,0,0.6267,0.6277,0.6218,0.6212,0.6189,0.6179,0.6167,0.6103,0.6093,0.605,0.6058,0.6039,0.602,0.6001,0.5953,0.5931,0.5907,0.5956,0.5904,0.592,0.5907,0.5906,0.5907,0.5967,0.5969,0.597,0.5971,0,0.6391,0.6363,0.6347,0.6322,0.6309,0.6286,0.6259,0.6258,0.6187,0.6178,0.6163,0.6148,0.612,0.6101,0.6072,0.6045,0.5996,0.5988,0.5995,0.6012,0.6031,0.602,0.5868,0.5985,0.5984,0.5983,0.5982,0.5982,0.6488,0.6493,0.6452,0.6437,0.641,0.6387,0.6385,0.6345,0.6331,0.6303,0.6266,0.6255,0.6217,0.6172,0.6149,0.6139,0.6112,0.6122,0.6124,0.6127,0.6135,0.6033,0.6134,0.6133,0.6133,0.6132,0.6132,0,0.6607,0.6577,0.6563,0.6528,0.6516,0.6471,0.6439,0.6432,0.6423,0.6391,0.6373,0.6355,0.6337,0.6288,0.6264,0.6266,0.6243,0.6262,0.626,0.6255,0.6161,0.6158,0.6281,0.6281,0.6281,0.6281,0.628,0.628,0.6667,0.6673,0.6641,0.6633,0.6602,0.6591,0.6576,0.6554,0.6528,0.6511,0.6495,0.6463,0.6424,0.6397,0.6378,0.6364,0.6358,0.6384,0.6362,0.6276,0.6262,0.6248,0.6244,0.6383,0.6383,0.6456,0.6457,0.6457]},{"header":{"parameterUnit":"m.s-1","parameterCategory":1,"la1":30.2991,"la2":30.254,"lo1":-89.0895,"lo2":-89.0444,"dy":0.0017,"dx":0.0017,"nx":28,"ny":28,"refTime":"2024-06-14T09:00:00:Z","depth":0,"parameterNumber":3,"parameterNumberName":"V-component_of_WINDS"},"data":[0,0,0,0,0,0,0,0,0,0,0,0,0,0,0,0,0,0,0,0,0,0,0,0,0,0,0,0,0,0,0,0,0,0,0,0,0,0,0,0,0,0,0,0,0,0,0,0,0,0,0,0,0,0,0,0,0,0,0.9365,0.9362,0,0.9121,0.9118,0.9115,0.8953,0.8952,0.895,0.8949,0.8688,0.8683,0.8677,0,0,0,0,0,0,0,0,0,0,0,0,0,0.968,0.9675,0.9365,0.9362,0.9359,0.9121,0.9118,0.9115,0.8953,0.8952,0.895,0.8949,0.869,0.8683,0.8676,0,0,0,0,0,0,0,0,0,0,0,0,0,0.95,0.9673,0.9366,0.925,0.9237,0.9122,0.9118,0.9114,0.8953,0.8951,0.895,0.8948,0.8693,0.8684,0.8675,0.8652,0,0,0.8648,0.8644,0,0,0,0,0,0,0,0,0.951,0.9488,0.927,0.9258,0.9243,0.9066,0.9133,0.8959,0.8954,0.9061,0.8949,0.8948,0.8814,0.8795,0.8753,0.864,0.8629,0.8647,0.8642,0.8638,0.8635,0,0,0,0,0,0,0,0.9523,0.9498,0.9268,0.9267,0.9251,0.9206,0.9179,0.9099,0.8949,0.9051,0.9039,0.9013,0.8807,0.8762,0.8745,0.8625,0.8647,0.8639,0.8634,0.863,0.8478,0.8479,0,0,0,0,0,0,0.9555,0.951,0.9276,0.9261,0.9376,0.9202,0.9172,0.9124,0.895,0.8922,0.9014,0.9006,0.8778,0.8756,0.8736,0.8695,0.8638,0.8629,0.8624,0.8476,0.8478,0.8479,0,0,0,0,0,0,0.9563,0.9536,0.9286,0.9382,0.9347,0.9199,0.9147,0.912,0.9075,0.8922,0.8893,0.8997,0.8776,0.8748,0.8674,0.8684,0.8625,0.8617,0.8475,0.8477,0.8479,0.8617,0,0,0,0,0,0,0.9572,0.954,0.9532,0.9383,0.9342,0.9233,0.9147,0.9117,0.9062,0.9048,0.8898,0.8871,0.8772,0.8689,0.8666,0.8671,0.861,0.8473,0.8476,0.8478,0.8611,0.8623,0.8634,0,0,0,0,0,0.9584,0.9579,0.9533,0.9506,0.9331,0.9234,0.921,0.9099,0.9063,0.9052,0.8954,0.8876,0.8688,0.8682,0.8655,0.8658,0.8472,0.8475,0.8478,0.8605,0.8621,0.8634,0,0,0,0,0,0,0.973,0.9557,0.9504,0.9452,0.9359,0.9207,0.919,0.9119,0.9032,0.9023,0.8886,0.8853,0.8793,0.8717,0.8715,0.8625,0.857,0.8568,0.8676,0.869,0.8701,0.872,0.8603,0,0,0,0,0,0.9757,0.9696,0.9547,0.9514,0.9471,0.9339,0.9293,0.9216,0.9113,0.9071,0.8967,0.8867,0.8784,0.8733,0.8649,0.8599,0.8562,0.8587,0.8599,0.861,0.8608,0.8574,0.8582,0.8489,0.8489,0.8489,0,0,0.9809,0.9708,0.9677,0.9541,0.946,0.9397,0.9307,0.9244,0.9194,0.906,0.8985,0.8905,0.8784,0.8722,0.8689,0.8657,0.8626,0.8613,0.8623,0.8615,0.8578,0.8587,0.8595,0.8491,0.8491,0.849,0,0,0.9873,0.9792,0.9755,0.9677,0.9557,0.9469,0.9461,0.9318,0.9261,0.9184,0.9082,0.9019,0.8881,0.8798,0.8738,0.8771,0.8695,0.8747,0.8807,0.8775,0.8782,0.8788,0.8797,0.8802,0.8746,0.8747,0.8747,0,0.9953,0.9858,0.9744,0.9687,0.9629,0.9509,0.9468,0.9396,0.9254,0.9214,0.9182,0.9005,0.8915,0.8831,0.8839,0.8795,0.8778,0.8763,0.8791,0.8796,0.8799,0.8806,0.8811,0.8754,0.8753,0.8752,0.8752,0,0.996,0.9895,0.9879,0.9749,0.9688,0.964,0.9516,0.9467,0.9396,0.931,0.9231,0.9119,0.901,0.8984,0.8912,0.8889,0.8873,0.8818,0.8759,0.8817,0.8821,0.8823,0.8764,0.8761,0.8759,0.8757,0,0,1.0108,0.9917,0.9912,0.9851,0.9709,0.9655,0.9599,0.9496,0.9456,0.9361,0.9309,0.9195,0.9143,0.9075,0.8992,0.8965,0.8994,0.8912,0.8907,0.8929,0.8959,0.9,0.9005,0.8944,0.8944,0.8944,0.8968,0,1.0149,1.0048,0.9944,0.9878,0.9814,0.9699,0.965,0.9556,0.9474,0.9405,0.9313,0.9234,0.9173,0.9131,0.9098,0.8998,0.8998,0.8995,0.889,0.8888,0.8923,0.9008,0.9051,0.9079,0.8969,0.8969,0.897,0,1.0183,1.0098,1.0027,0.9891,0.986,0.9819,0.9714,0.9651,0.9541,0.9483,0.9408,0.9321,0.9252,0.9204,0.9105,0.9106,0.9056,0.9,0.8999,0.8983,0.8931,0.8992,0.9085,0.9089,0.8971,0.8971,0.8971,0,1.0296,1.0163,1.0102,1.0053,0.9894,0.9867,0.9798,0.9686,0.963,0.9538,0.9499,0.9399,0.9344,0.9266,0.9153,0.9128,0.9066,0.9008,0.9012,0.9015,0.9003,0.9005,0.9088,0.8975,0.8975,0.8975,0.8975,0,1.0352,1.0312,1.0151,1.0114,1.0064,0.9944,0.9897,0.9817,0.9719,0.9661,0.9554,0.9501,0.9356,0.9284,0.9195,0.9126,0.9101,0.905,0.9026,0.9058,0.9065,0.9023,0.9017,0.8976,0.8976,0.8976,0.8975,0,1.0468,1.036,1.0286,1.0142,1.0104,1.0074,0.9948,0.9905,0.9818,0.9746,0.9722,0.9584,0.9494,0.9374,0.9246,0.9185,0.9127,0.9091,0.9165,0.9151,0.9162,0.9162,0.9218,0.9219,0.911,0.9111,0.9112,0,1.051,1.0477,1.0331,1.0286,1.0222,1.0152,1.0094,0.9973,0.9918,0.9789,0.9761,0.9664,0.958,0.9441,0.9327,0.9227,0.9187,0.9214,0.9171,0.9204,0.9184,0.9187,0.9182,0.9224,0.9225,0.9227,0.9228,0,1.0595,1.0543,1.0468,1.0373,1.0309,1.0227,1.014,1.0109,0.9968,0.991,0.9819,0.9755,0.9625,0.9529,0.9415,0.9339,0.9259,0.9243,0.9238,0.927,0.9314,0.9288,0.9192,0.9242,0.924,0.9239,0.9239,0.9238,1.0673,1.0639,1.053,1.0448,1.0371,1.0292,1.0245,1.0153,1.0077,0.9965,0.9897,0.9808,0.9695,0.9534,0.9462,0.9388,0.9357,0.9351,0.9348,0.9348,0.9358,0.9328,0.9367,0.9366,0.9366,0.9365,0.9365,0,1.0751,1.0676,1.0603,1.0486,1.0421,1.0357,1.0257,1.0205,1.013,1.0034,0.9954,0.9848,0.9754,0.9633,0.953,0.9493,0.9454,0.947,0.947,0.9453,0.9393,0.9407,0.9503,0.9503,0.9503,0.9503,0.9503,0.9503,1.0784,1.0721,1.0656,1.0552,1.0475,1.0391,1.0339,1.0264,1.0187,1.0075,0.9998,0.9921,0.9813,0.9701,0.961,0.9577,0.9542,0.9569,0.9524,0.947,0.9458,0.9446,0.9458,0.9564,0.9564,0.959,0.959,0.959]}]]